STARLINK-11674, 64327

Orbit data source: Space-Track

STARLINK-11674, 64327 is a payload satellite owned by SpaceX/Seattle (US) in LEO that was launched on Tue, 10 Jun 2025 UTC via an FALCON 9 launch vehicle from the Air Force Eastern Test Range (AFETR). Payload-class satellites include a variety of spacecraft equipped with specific instruments for various scientific and technological missions. These include communications satellites like Starlink; space stations such as the ISS; scientific satellites like the Hubble; Earth observation satellites from companies like Planet Labs, Umbra, and HawkEye 360; GPS; miniature CubeSats for education and research; and military/defense satellites.

Loading next visibility...
Identifier
64327, 2025-124L
Orbit
LEO
Last TLE update
14 hours ago
Origin
Manufacturer
SpaceX/Seattle
Mission
Operational spacecraft
Bus & Motor
STARLINK V2M, Unknown motor
Mass
730 kg wet, ~700 kg dry
Launch date (UTC)
2025-06-10 (3 weeks ago)
Launch vehicle
FALCON 9
Launch site
Air Force Eastern Test Range (AFETR)
Object type
Payload
Rocket body
Debris
Shape & HBR
Unknown
Radar Cross Section
Large (>1 m²)

Expand to show TLE details & history

TLE from 14 hours ago
0 STARLINK-11674
1 64327U 25124L   25181.91668981 -.00994292  00000-0 -57877-2 0  9994
2 64327  43.0033 107.1150 0001583 269.3938  98.8630 15.80104957  4355
Epoch: 2025-06-30T22:00Z
TLE epoch observation values (Epoch: 2025-06-30T22:00:01.999Z)
Latitude
5.60858°
Longitude
-136.1029°
Altitude
329.524 km
Speed
7.713 km/s
True Right ascension
07h 32m 30s
True Declination
5° 34' 23"
Sunlit
Object was in daylight at epoch
Visualization orbit readout
Latitude
-16.61001°
Longitude
52.74568°
Altitude
336.781 km
Speed
7.708 km/s
Apparent Right ascension
17h 00m 48s
Apparent Declination
-45° 44' 58"
Sunlit
Object is in full shadow
Visualization observer readout
Local Sidereal Time
00:08:00
Azimuth
237.843° WSW
Elevation
-37.901°
Doppler factor
1
Orbital elements
Apogee altitude
333.195 km
Perigee altitude
331.07 km
Semi-major axis
6,710.269 km
Eccentricity
0.00016
Inclination
43.0033°
RAAN
107.115°
Arg. of periapsis
269.3938°
True anomaly
Unknown
Mean anomaly
98.863°
Eccentric anomaly
Unknown
Mean motion
3.94851 °/min
Orbital period
91.17 mins
BSTAR
-0.0057877
Loading maneuver chart data...
Loading SW <> Apogee altitude chart data...
Loading historical data...
Loading historical data...
Loading historical data...
Loading historical data...
Loading historical data...
Loading historical data...
Loading historical data...

STARLINK-11674 Visibility forecast

Observer location: undefined°, undefined°

Span
Click to sort rows by Start time (UTC) header in descending order
Start Az.
Max El. time (UTC)
Max El. Az.
Max El.
End time (UTC)
End Az.
4 mins2025-07-01 22:29:13.463Z217.296° SW2025-07-01 22:31:13.463Z135.462° SSE32.282°2025-07-01 22:33:13.463Z84.541° E
4 mins2025-07-02 00:05:13.463Z284.315° WNW2025-07-02 00:06:13.463Z320.119° NNW35.957°2025-07-02 00:09:13.463Z67.778° E
4 mins2025-07-02 01:41:13.463Z306.422° NW2025-07-02 01:42:13.463Z347.183° N35.285°2025-07-02 01:45:13.463Z84.041° E
|